Back to catalog

QIANFAN-238

AliveCommunicationsPO
NORAD 69867·PAYLOAD·🇨🇳 China

Launched Jul 5, 2026 from Wenchang Space Launch Site

Loading…

Next Passes (next 24 hours)

TLE

FreshSource: Space-Track

Epoch: Sep 14, 2026, 12:27 UTC

1 69867U 26155V   26257.51922952 -.01802144  00000-0 -28650+1 0  9995
2 69867  89.0081  54.2967 0028767  30.2600 330.0206 13.53481013  9932

Track QIANFAN-238 in real time with AllMySat

Download on the App Store